IRIDIUM 33 DEB, 34091

Orbit data source: Space-Track

IRIDIUM 33 DEB, 34091 is space debris in LEO originally from a launch on Sun, 14 Sep 1997 UTC launched from the Tyuratam Missile And Space Complex (TTMTR). The debris from Iridium 33, an American commercial communications satellite, has been tracked extensively since its accidental collision with the defunct Russian satellite Cosmos 2251 in 2009. This event, occurring at high speed in low Earth orbit (LEO), generated thousands of pieces of space debris, significantly increasing the risk of further collisions. The Iridium 33 debris cloud has impacted space traffic management and orbital debris mitigation strategies, making it a subject of ongoing study in space situational awareness.

Loading next visibility...
Identifier
34091, 1997-051DA
Orbit
LEO
Country
Flag of USUS
Related business
Manufacturer
Unknown
Mission
Spacecraft
Bus & Motor
Unknown
Mass
Unknown
Launch date (UTC)
1997-09-14 (28 years ago)
Launch vehicle
Unknown
Launch site
Tyuratam Missile And Space Complex (TTMTR)
Object type
Payload
Rocket body
Debris
Shape & HBR
Unknown shape, 0.1 m
Radar Cross Section
Small (<0.1 m²)

Expand to show TLE details & history
Last TLE update: 1 day ago

TLE from 1 day ago
0 IRIDIUM 33 DEB
1 34091U 97051DA  26036.99330333  .00059307  00000-0  65137-2 0  9997
2 34091  86.3426  41.4305 0036435 100.9621 259.5706 14.86889411886865
Epoch: 2026-02-05T23:50Z
TLE epoch observation values (Epoch: 2026-02-05T23:50:21.407Z)
Latitude
-0.00006°
Longitude
-92.29626°
Altitude
615.485 km
Speed
7.549 km/s
True Right ascension
02h 45m 43s
True Declination
0° 00' 00"
Sunlit
Object was in daylight at epoch
Visualization orbit readout
Latitude
Unknown
Longitude
Unknown
Altitude
Unknown
Speed
Unknown
Apparent Right ascension
Unknown
Apparent Declination
Unknown
Sunlit
N/A
Visualization observer readout
Local Sidereal Time
06:15:55
Azimuth
Unknown
Elevation
Unknown
Doppler factor
Unknown
Orbital elements
Apogee altitude
629.995 km
Perigee altitude
579.112 km
Semi-major axis
6,982.69 km
Eccentricity
0.00364
Inclination
86.3426°
RAAN
41.4305°
Arg. of periapsis
100.9621°
True anomaly
259.16033°
Mean anomaly
259.5706°
Eccentric anomaly
259.36543°
Mean motion
3.71971 °/min
Orbital period
96.78 mins
BSTAR
0.0065137
Loading maneuver chart data...
Computing Atmospheric mass density...

Documentation

Showing up to 5 results
|